LU4HH-11 Weather Reports


Display with metric or nautical units.
time (UTC)temp
F
wind
direction
speed
MPH
gust
MPH
rain 1hr
in
rain 24hr
in
rain mn
in
humidity
%
barometer
mb
20260505092114 76 0 0.0 0.0 0.00 0.00 0.00 48 958.0
20260505091103 76 0 0.0 0.0 0.00 0.00 0.00 48 958.0
20260505090053 76 0 0.0 0.0 0.00 0.00 0.00 48 958.0
20260505085043 77 0 0.0 0.0 0.00 0.00 0.00 48 958.0
20260505084033 77 0 0.0 0.0 0.00 0.00 0.00 47 958.0
20260505083024 77 0 0.0 0.0 0.00 0.00 0.00 47 958.0
20260505082013 77 0 0.0 0.0 0.00 0.00 0.00 47 958.0
20260505081003 77 0 0.0 0.0 0.00 0.00 0.00 47 958.0
20260505075953 77 0 0.0 0.0 0.00 0.00 0.00 47 957.0
20260505074943 77 0 0.0 0.0 0.00 0.00 0.00 47 957.0
20260505073933 77 0 0.0 0.0 0.00 0.00 0.00 47 957.0
20260505072923 77 0 0.0 0.0 0.00 0.00 0.00 47 957.0
20260505071913 77 0 0.0 0.0 0.00 0.00 0.00 47 958.0
20260505070903 77 0 0.0 0.0 0.00 0.00 0.00 47 958.0
20260505065853 77 0 0.0 0.0 0.00 0.00 0.00 47 958.0
20260505064843 77 0 0.0 0.0 0.00 0.00 0.00 48 958.0
20260505063833 78 0 0.0 0.0 0.00 0.00 0.00 48 958.0
20260505062823 77 0 0.0 0.0 0.00 0.00 0.00 48 958.0
20260505061813 78 0 0.0 0.0 0.00 0.00 0.00 48 958.0
20260505060803 77 0 0.0 0.0 0.00 0.00 0.00 48 958.0
20260505055753 78 0 0.0 0.0 0.00 0.00 0.00 48 958.0
20260505054743 78 0 0.0 0.0 0.00 0.00 0.00 48 958.0
20260505053733 78 0 0.0 0.0 0.00 0.00 0.00 48 958.0
20260505052723 78 0 0.0 0.0 0.00 0.00 0.00 48 958.0
20260505051713 78 0 0.0 0.0 0.00 0.00 0.00 48 958.0
20260505050703 78 0 0.0 0.0 0.00 0.00 0.00 48 958.0
20260505041613 78 0 0.0 0.0 0.00 0.00 0.00 48 958.0
20260505040606 78 0 0.0 0.0 0.00 0.00 0.00 48 958.0
20260505035553 79 0 0.0 0.0 0.00 0.00 0.00 48 958.0
20260505034543 78 0 0.0 0.0 0.00 0.00 0.00 49 958.0
20260505033533 77 0 0.0 0.0 0.00 0.00 0.00 51 958.0
20260505032523 78 0 0.0 0.0 0.00 0.00 0.00 51 958.0
20260505031513 77 0 0.0 0.0 0.00 0.00 0.00 51 958.0
20260505030400 78 0 0.0 0.0 0.00 0.00 0.00 50 958.0
20260505025332 81 0 0.0 0.0 0.00 0.00 0.00 46 958.0
20260505025113 83 0 0.0 0.0 0.00 0.00 0.00 42 958.0
20260505024046 82 0 0.0 0.0 0.00 0.00 0.00 44 958.0
20260505023036 82 0 0.0 0.0 0.00 0.00 0.00 44 958.0
20260505022606 83 0 0.0 0.0 0.00 0.00 0.00 44 958.0
20260505021556 82 0 0.0 0.0 0.00 0.00 0.00 44 958.0
20260505020546 83 0 0.0 0.0 0.00 0.00 0.00 43 958.0
20260505015901 83 0 0.0 0.0 0.00 0.00 0.00 43 958.0
20260505015633 83 0 0.0 0.0 0.00 0.00 0.00 43 958.0
20260505014623 83 0 0.0 0.0 0.00 0.00 0.00 43 958.0
20260505013613 83 0 0.0 0.0 0.00 0.00 0.00 42 958.0
20260505012603 83 0 0.0 0.0 0.00 0.00 0.00 42 958.0
20260505011553 83 0 0.0 0.0 0.00 0.00 0.00 42 958.0
20260505010543 82 0 0.0 0.0 0.00 0.00 0.00 43 958.0
20260505005533 77 0 0.0 0.0 0.00 0.00 0.00 50 958.0
20260505004523 76 0 0.0 0.0 0.00 0.00 0.00 51 958.0
20260505003513 76 0 0.0 0.0 0.00 0.00 0.00 51 957.0
20260505002503 75 0 0.0 0.0 0.00 0.00 0.00 51 957.0
20260505001453 76 0 0.0 0.0 0.00 0.00 0.00 51 958.0
20260505000443 76 0 0.0 0.0 0.00 0.00 0.00 51 957.0
20260504235433 75 0 0.0 0.0 0.00 0.00 0.00 52 957.0
20260504234423 75 0 0.0 0.0 0.00 0.00 0.00 53 957.0
20260504233413 75 0 0.0 0.0 0.00 0.00 0.00 51 957.0
20260504232403 75 0 0.0 0.0 0.00 0.00 0.00 51 957.0
20260504231353 75 0 0.0 0.0 0.00 0.00 0.00 51 957.0
20260504230343 75 0 0.0 0.0 0.00 0.00 0.00 51 957.0
20260504225333 76 0 0.0 0.0 0.00 0.00 0.00 50 957.0
20260504224323 75 0 0.0 0.0 0.00 0.00 0.00 51 956.0
20260504223313 77 0 0.0 0.0 0.00 0.00 0.00 48 957.0